LogID,LogEntryDate,LogEntryTime,LogEntrySeconds,01_LogMark,AFR,STFT,CurrentLTFT,IdleLTFT,CruiseLTFT,Load,O2Sensor2,IPW,AFRMAP,LoadTiming,TimingAdv,KnockSum,RPM,Baro,MAP,Boost,WGDC_Active,MAF,IDC,InVVTtarget,APP,ExVVTtarget,InVVTactual,ExVVTactual,TPS,IAT,WGDCCorr,Speed,Battery,ECT,MAT,MAPCalcs,IMAPCalcs,MAFCalcs,ChosenCalc,Custom
1,2024-06-25,04:59:55.81807,0.31062,0,0,0,-12.5,-12.5,-1.953125,14.0625,,1.3,,14.0625,40,0,3375,15.01140609,3.4735284,-11.53787769,0,1.745112,3.65625,10,,0,9.53125,0.3125,15.2941176470588,80.6,0,49.72,,181.4,100.4,14.0625,0,12.5,14.0625,
2,2024-06-25,04:59:55.91187,0.3969,0,10.2,0,-12.5,-12.5,-1.953125,14.0625,,1.3,,14.0625,40,0,3351.5625,15.01140609,3.4735284,-11.53787769,0,1.745112,3.630859375,10,,0,9.53125,0.3125,15.2941176470588,80.6,0,49.72,,181.4,100.4,14.0625,0,12.5,12.5,
3,2024-06-25,04:59:56.00560,0.48998,0,10.1,0,-12.5,-12.5,-1.953125,12.5,,1.3,,14.0625,40,0,3335.9375,15.01140609,3.4735284,-11.53787769,0,1.745112,3.61393229166667,10,,0,9.53125,0.3125,15.2941176470588,80.6,0,49.72,,181.4,100.4,14.0625,0,12.5,14.0625,
4,2024-06-25,04:59:56.09932,0.57736,0,10.1,-3.515625,-12.5,-12.5,-1.953125,14.0625,,1.3,,14.0625,40,0,3312.5,15.01140609,3.4735284,-11.53787769,0,1.745112,3.58854166666667,10,,0,9.53125,0.3125,15.2941176470588,80.6,0,49.72,,181.4,100.4,14.0625,0,10.9375,12.5,
5,2024-06-25,04:59:56.14619,0.62981,0,10.1,-3.515625,-12.5,-12.5,-1.953125,12.5,,1.3,,12.5,40,0,3312.5,15.01140609,3.4735284,-11.53787769,0,1.745112,3.58854166666667,10,,0,9.53125,0.3125,15.2941176470588,80.6,0,49.72,,181.4,100.4,14.0625,0,9.375,12.5,
6,2024-06-25,04:59:56.19307,0.67782,0,10.1,-3.515625,-12.5,-12.5,-1.953125,12.5,,1.3,,12.5,40,0,3320.3125,15.01140609,3.4735284,-11.53787769,0,1.745112,3.59700520833333,10,,0,9.53125,0.3125,15.2941176470588,80.6,0,48.477,,181.4,100.4,14.0625,0,12.5,12.5,
7,2024-06-25,04:59:56.25559,0.74332,0,10.1,-4.296875,-12.5,-12.5,-1.953125,12.5,,1.3,,12.5,40,0,3304.6875,15.01140609,3.4735284,-11.53787769,0,1.745112,3.580078125,10,,0,9.53125,0.3125,15.2941176470588,80.6,0,48.477,,181.4,100.4,14.0625,0,12.5,12.5,
8,2024-06-25,04:59:56.31807,0.80916,0,10.2,-4.296875,-12.5,-12.5,-1.953125,12.5,,1.3,,12.5,40,0,3281.25,15.01140609,3.4735284,-11.53787769,0,1.745112,3.5546875,10,,0,9.6875,0.3125,14.1176470588235,80.6,0,48.477,,181.4,100.4,14.0625,1.5625,10.9375,12.5,
9,2024-06-25,04:59:56.42744,0.91863,0,10.2,-4.296875,-12.5,-12.5,-1.953125,12.5,,0,,12.5,-10,0,3257.8125,15.01140609,3.1840677,-11.82733839,0,1.588248,0,10,,0,9.6875,0.3125,14.1176470588235,80.6,0,48.477,,181.4,100.4,12.5,0,7.8125,9.375,
10,2024-06-25,04:59:56.53682,1.0228,0,10.3,0,-12.5,-12.5,-1.953125,9.375,,0,,9.375,-10,0,3210.9375,15.01140609,3.1840677,-11.82733839,0,1.588248,0,10,,0,9.6875,0.46875,14.1176470588235,80.6,0,48.477,,181.4,100.4,10.9375,0,9.375,9.375,
11,2024-06-25,04:59:56.63057,1.10969,0,10.1,0,-12.5,-12.5,-1.953125,9.375,,0,,9.375,-10,0,3132.8125,15.01140609,3.2805546,-11.73085149,0,1.607856,0,10,,0,9.6875,0.46875,14.1176470588235,80.6,0,48.477,,181.4,100.4,10.9375,0,10.9375,9.375,
12,2024-06-25,04:59:56.67744,1.158,0,10.1,0,-12.5,-12.5,-1.953125,9.375,,0,,9.375,-10,0,3007.8125,15.01140609,3.2805546,-11.73085149,0,1.607856,0,10,,0,9.84375,0.46875,14.1176470588235,80.6,0,47.234,,183.2,100.4,10.9375,0,7.8125,9.375,
13,2024-06-25,04:59:56.72439,1.20258,0,10.1,0,-12.5,-12.5,-1.953125,9.375,,0,,9.375,-10,0,2953.125,15.01140609,3.2805546,-11.73085149,0,1.607856,0,10,,0,9.84375,0.46875,14.1176470588235,80.6,0,47.234,,183.2,100.4,10.9375,0,7.8125,9.375,
14,2024-06-25,04:59:56.75560,1.247,0,10.3,0,-12.5,-12.5,-1.953125,9.375,,0,,9.375,-10,0,2875,15.01140609,3.2805546,-11.73085149,0,1.607856,0,10,,0,9.84375,0.46875,14.1176470588235,80.6,0,47.234,,183.2,100.4,10.9375,0,7.8125,9.375,
15,2024-06-25,04:59:56.84932,1.32759,0,10.3,0,-12.5,-12.5,-1.953125,9.375,,0,,9.375,-10,0,2820.3125,15.01140609,3.1840677,-11.82733839,0,1.56864,0,10,,0,9.84375,0.46875,14.1176470588235,80.6,0,47.234,,183.2,100.4,9.375,0,9.375,9.375,
16,2024-06-25,04:59:56.89621,1.38732,0,12,0,-12.5,-12.5,-1.953125,9.375,,0,,9.375,-10,0,2703.125,15.01140609,3.1840677,-11.82733839,0,1.56864,0,10,,0,10,0.3125,14.1176470588235,80.6,0,47.234,,183.2,100.4,9.375,0,9.375,9.375,
17,2024-06-25,04:59:56.97436,1.45329,0,12,0,-12.5,-12.5,-1.953125,9.375,,0,,9.375,-10,0,2625,15.01140609,3.1840677,-11.82733839,0,1.549032,0,10,,0,10,0.3125,13.7254901960784,80.6,0,47.234,,183.2,100.4,9.375,0,10.9375,9.375,
18,2024-06-25,04:59:57.05245,1.53057,0,12,0,-12.5,-12.5,-1.953125,9.375,,0,,9.375,-10,0,2531.25,15.01140609,3.1840677,-11.82733839,0,1.549032,0,10,,0,10,0.15625,13.7254901960784,80.6,0,47.234,,183.2,100.4,10.9375,0,6.25,9.375,
19,2024-06-25,04:59:57.16187,1.64278,0,18.5,0,-12.5,-12.5,-1.953125,9.375,,0,,9.375,-10,0,2421.875,15.01140609,3.1840677,-11.82733839,0,1.588248,0,10,,0,10,0.15625,13.7254901960784,80.6,0,47.234,,183.2,100.4,10.9375,0,9.375,9.375,
20,2024-06-25,04:59:57.22435,1.70463,0,18.5,0,-12.5,-12.5,-1.953125,9.375,,0,,9.375,-10,0,2328.125,15.01140609,3.1840677,-11.82733839,0,1.588248,0,10,,0,10,0.15625,13.3333333333333,80.6,0,47.234,,183.2,100.4,10.9375,0,9.375,9.375,
21,2024-06-25,04:59:57.28682,1.76832,0,18.5,0,-12.5,-12.5,-1.953125,9.375,,0,,9.375,-10,0,2421.875,15.01140609,3.1840677,-11.82733839,0,1.549032,0,10,,0,10,0.15625,13.3333333333333,80.6,0,47.234,,183.2,100.4,9.375,0,7.8125,9.375,
22,2024-06-25,04:59:57.33375,1.81947,0,18.5,0,-12.5,-12.5,-1.953125,9.375,,0,,9.375,-10,0,2546.875,15.01140609,3.1840677,-11.82733839,0,1.549032,0,10,,0,10,0.3125,13.3333333333333,80.6,0,47.234,,183.2,100.4,9.375,0,10.9375,9.375,
23,2024-06-25,04:59:57.42744,1.90526,0,18.5,0,-12.5,-12.5,-1.953125,9.375,,0,,9.375,-10,0,2632.8125,15.01140609,3.0875808,-11.92382529,0,1.588248,0,10,,0,10,0.3125,13.7254901960784,80.6,0,47.234,,183.2,100.4,9.375,0,9.375,9.375,
24,2024-06-25,04:59:57.47436,1.96269,0,18.5,0,-12.5,-12.5,-1.953125,9.375,,0,,9.375,-10,0,2804.6875,15.01140609,3.0875808,-11.92382529,0,1.588248,0,10,,0,9.84375,0.3125,13.7254901960784,80.6,0,45.991,,183.2,100.4,9.375,0,10.9375,9.375,
25,2024-06-25,04:59:57.53682,2.02534,0,18.5,0,-12.5,-12.5,-1.953125,9.375,,0,,9.375,-10,0,2921.875,15.01140609,3.0875808,-11.92382529,0,1.549032,0,10,,0,9.84375,0.3125,13.7254901960784,80.6,0,45.991,,183.2,100.4,10.9375,0,9.375,9.375,
26,2024-06-25,04:59:57.58372,2.06735,0,18.5,0,-12.5,-12.5,-1.953125,9.375,,0,,9.375,-10,0,3039.0625,15.01140609,3.0875808,-11.92382529,0,1.549032,0,10,,0,9.84375,0.3125,14.1176470588235,78.8,0,45.991,,183.2,100.4,10.9375,0,9.375,9.375,
27,2024-06-25,04:59:57.66187,2.15142,0,18.5,0,-12.5,-12.5,-1.953125,9.375,,0,,9.375,-10,0,3109.375,15.01140609,3.1840677,-11.82733839,0,1.647072,0,10,,0,9.84375,0.3125,14.1176470588235,78.8,0,45.991,,183.2,100.4,12.5,0,7.8125,9.375,
28,2024-06-25,04:59:57.72431,2.20224,0,18.5,0,-12.5,-12.5,-1.953125,9.375,,0,,9.375,-10,0,3296.875,15.01140609,3.1840677,-11.82733839,0,1.647072,0,10,,0,9.53125,0.3125,14.1176470588235,78.8,0,45.991,,183.2,100.4,12.5,0,7.8125,9.375,
29,2024-06-25,04:59:57.75557,2.24777,0,18.5,0,-12.5,-12.5,-1.953125,9.375,,0,,9.375,-10,0,3406.25,15.01140609,3.1840677,-11.82733839,0,1.647072,0,10,,0,9.53125,0.3125,14.5098039215686,80.6,0,45.991,,183.2,100.4,12.5,0,9.375,9.375,
30,2024-06-25,04:59:57.81807,2.3008,0,18.5,0,-12.5,-12.5,-1.953125,9.375,,0,,9.375,-10,0,3476.5625,15.01140609,3.1840677,-11.82733839,0,1.647072,0,10,,0,9.53125,0,14.5098039215686,80.6,0,45.991,,183.2,100.4,14.0625,0,7.8125,9.375,
31,2024-06-25,04:59:57.91187,2.39572,0,18.5,0,-12.5,-12.5,-1.953125,9.375,,0,,9.375,20,0,3578.125,15.01140609,3.0875808,-11.92382529,0,1.686288,0,10,,0,9.53125,0,14.5098039215686,80.6,0,45.991,,183.2,100.4,14.0625,0,9.375,9.375,
32,2024-06-25,04:59:57.95872,2.45099,0,18.5,0,-12.5,-12.5,-1.953125,9.375,,0,,9.375,24,0,3804.6875,15.01140609,3.0875808,-11.92382529,0,1.686288,0,10,,0,9.84375,-0.15625,15.2941176470588,78.8,0,45.991,,183.2,100.4,14.0625,0,10.9375,10.9375,
33,2024-06-25,04:59:58.08370,2.56766,0,18.5,0,-12.5,-12.5,-1.953125,10.9375,,0,,10.9375,27,0,3921.875,15.01140609,3.1840677,-11.82733839,0,1.76472,0,10,,0,9.84375,-0.15625,15.2941176470588,78.8,0,43.505,,183.2,100.4,14.0625,0,12.5,12.5,
34,2024-06-25,04:59:58.16184,2.64232,0,18.5,0,-12.5,-12.5,-1.953125,12.5,,0,,12.5,32,0,3890.625,15.01140609,3.1840677,-11.82733839,0,1.76472,0,10,,0,9.84375,-0.15625,15.2941176470588,78.8,0,43.505,,183.2,100.4,14.0625,0,9.375,12.5,
35,2024-06-25,04:59:58.22435,2.70405,0,18.5,0,-12.5,-12.5,-1.953125,12.5,,0,,12.5,35,0,3898.4375,15.01140609,3.1840677,-11.82733839,0,1.784328,0,10,,0,9.84375,-0.15625,15.2941176470588,78.8,0,43.505,,183.2,100.4,14.0625,0,12.5,12.5,
36,2024-06-25,04:59:58.25557,2.74045,0,18.5,0,-12.5,-12.5,-1.953125,12.5,,0,,12.5,37,0,3898.4375,15.01140609,3.1840677,-11.82733839,0,1.784328,0,10,,0,9.84375,-0.15625,15.2941176470588,78.8,0,43.505,,183.2,100.4,14.0625,0,12.5,12.5,
37,2024-06-25,04:59:58.34932,2.83041,0,18.5,0,-12.5,-12.5,-1.953125,12.5,,0,,12.5,39,0,3890.625,15.01140609,3.1840677,-11.82733839,0,1.725504,0,10,,0,9.84375,-0.15625,15.2941176470588,78.8,0,43.505,,183.2,100.4,14.0625,0,10.9375,12.5,
38,2024-06-25,04:59:58.42745,2.9076,0,18.5,0,-12.5,-12.5,-1.953125,12.5,,0,,12.5,40,0,3859.375,15.01140609,3.1840677,-11.82733839,0,1.725504,0,10,,0,10,-0.15625,15.2941176470588,78.8,0,43.505,,183.2,100.4,14.0625,0,10.9375,10.9375,
39,2024-06-25,04:59:58.52120,3.0079,0,18.5,0,-12.5,-12.5,-1.953125,10.9375,,0,,10.9375,40,0,3859.375,15.01140609,3.1840677,-11.82733839,0,1.705896,0,10,,0,10,-0.15625,15.2941176470588,78.8,0,43.505,,183.2,100.4,14.0625,0,12.5,10.9375,
40,2024-06-25,04:59:58.61499,3.09614,0,18.5,0,-12.5,-12.5,-1.953125,12.5,,0,,10.9375,40,0,3843.75,15.01140609,3.1840677,-11.82733839,0,1.705896,0,10,,0,9.84375,0,15.2941176470588,78.8,0,43.505,,183.2,100.4,14.0625,0,10.9375,10.9375,
41,2024-06-25,04:59:58.70873,3.20028,0,18.5,0,-12.5,-12.5,-1.953125,10.9375,,0,,10.9375,40,0,3835.9375,15.01140609,3.1840677,-11.82733839,0,1.725504,0,10,,0,9.84375,0,14.9019607843137,78.8,0,43.505,,183.2,100.4,14.0625,0,12.5,10.9375,
42,2024-06-25,04:59:58.75561,3.24748,0,18.5,0,-12.5,-12.5,-1.953125,10.9375,,0,,10.9375,40,0,3812.5,15.01140609,3.1840677,-11.82733839,0,1.725504,0,10,,0,9.84375,0,14.9019607843137,78.8,0,42.262,,183.2,100.4,14.0625,0,12.5,10.9375,
43,2024-06-25,04:59:58.81807,3.29645,0,18.5,0,-12.5,-12.5,-1.953125,10.9375,,0,,10.9375,40,0,3812.5,15.01140609,3.1840677,-11.82733839,0,1.745112,0,10,,0,9.84375,0,14.9019607843137,78.8,0,42.262,,183.2,100.4,14.0625,0,10.9375,10.9375,
44,2024-06-25,04:59:58.86500,3.35697,0,18.5,0,-12.5,-12.5,-1.953125,10.9375,,0,,10.9375,40,0,3804.6875,15.01140609,3.1840677,-11.82733839,0,1.745112,0,10,,0,10,-0.15625,14.9019607843137,78.8,0,42.262,,183.2,100.4,14.0625,0,12.5,10.9375,
45,2024-06-25,04:59:58.92749,3.41316,0,18.5,0,-12.5,-12.5,-1.953125,10.9375,,0,,10.9375,40,0,3789.0625,15.01140609,3.1840677,-11.82733839,0,1.803936,0,10,,0,10,-0.15625,14.9019607843137,78.8,0,42.262,,183.2,100.4,14.0625,0,10.9375,10.9375,
46,2024-06-25,04:59:58.98996,3.47686,0,18.5,0,-12.5,-12.5,-1.953125,12.5,,0,,10.9375,40,0,3773.4375,15.01140609,3.1840677,-11.82733839,0,1.803936,0,10,,0,9.84375,0,14.9019607843137,78.8,0,42.262,,183.2,100.4,14.0625,0,12.5,10.9375,
47,2024-06-25,04:59:59.08374,3.5726,0,18.5,0,-12.5,-12.5,-1.953125,10.9375,,0,,10.9375,40,0,3765.625,15.01140609,3.1840677,-11.82733839,0,1.705896,0,10,,0,9.84375,0,14.9019607843137,78.8,0,42.262,,183.2,100.4,14.0625,0,12.5,10.9375,
48,2024-06-25,04:59:59.14620,3.63036,0,18.5,0,-12.5,-12.5,-1.953125,10.9375,,0,,10.9375,40,0,3757.8125,15.01140609,3.1840677,-11.82733839,0,1.705896,0,10,,0,10,0,14.9019607843137,78.8,0,42.262,,183.2,100.4,14.0625,0,10.9375,10.9375,
49,2024-06-25,04:59:59.23995,3.72668,0,18.5,0,-12.5,-12.5,-1.953125,10.9375,,0,,10.9375,40,0,3750,15.01140609,3.1840677,-11.82733839,0,1.745112,0,10,,0,10,0,14.9019607843137,78.8,0,42.262,,183.2,100.4,14.0625,0,10.9375,10.9375,
50,2024-06-25,04:59:59.31808,3.80277,0,18.5,0,-12.5,-12.5,-1.953125,10.9375,,0,,10.9375,40,0,3734.375,15.01140609,3.1840677,-11.82733839,0,1.745112,0,10,,0,9.84375,0,14.9019607843137,78.8,0,42.262,,183.2,100.4,14.0625,0,7.8125,10.9375,
51,2024-06-25,04:59:59.45874,3.93665,0,18.5,0,-12.5,-12.5,-1.953125,10.9375,,0,,10.9375,40,0,3726.5625,15.01140609,3.0875808,-11.92382529,0,1.705896,0,10,,0,9.84375,0,14.9019607843137,78.8,0,41.019,,183.2,100.4,14.0625,0,10.9375,10.9375,
52,2024-06-25,04:59:59.52120,4.00307,0,18.5,0,-12.5,-12.5,-1.953125,10.9375,,0,,10.9375,40,0,3710.9375,15.01140609,3.0875808,-11.92382529,0,1.705896,0,10,,0,9.84375,0,14.9019607843137,78.8,0,41.019,,183.2,100.4,14.0625,0,9.375,9.375,
53,2024-06-25,04:59:59.67744,4.15544,0,18.5,0,-12.5,-12.5,-1.953125,9.375,,0,,9.375,40,0,3695.3125,15.01140609,3.1840677,-11.82733839,0,1.725504,0,10,,0,9.84375,0,14.9019607843137,78.8,0,41.019,,183.2,100.4,14.0625,0,10.9375,9.375,
54,2024-06-25,04:59:59.72432,4.20182,0,18.5,0,-12.5,-12.5,-1.953125,9.375,,0,,9.375,40,0,3679.6875,15.01140609,3.1840677,-11.82733839,0,1.725504,0,10,,0,9.84375,0,14.9019607843137,78.8,0,41.019,,183.2,100.4,14.0625,0,7.8125,9.375,
55,2024-06-25,04:59:59.81807,4.29914,0,18.5,0,-12.5,-12.5,-1.953125,9.375,,0,,9.375,40,0,3671.875,15.01140609,3.0875808,-11.92382529,0,1.686288,0,10,,0,9.84375,0,14.9019607843137,78.8,0,41.019,,183.2,100.4,14.0625,0,10.9375,9.375,
56,2024-06-25,04:59:59.88057,4.3616,0,18.5,0,-12.5,-12.5,-1.953125,9.375,,0,,9.375,40,0,3656.25,15.01140609,3.0875808,-11.92382529,0,1.686288,0,10,,0,9.84375,0.15625,14.9019607843137,78.8,0,41.019,,183.2,100.4,14.0625,0,7.8125,9.375,
57,2024-06-25,04:59:59.92746,4.41852,0,18.5,0,-12.5,-12.5,-1.953125,9.375,,0,,9.375,40,0,3648.4375,15.01140609,3.0875808,-11.92382529,0,1.66668,0,10,,0,9.84375,0.15625,14.9019607843137,78.8,0,41.019,,183.2,100.4,14.0625,0,9.375,9.375,
58,2024-06-25,04:59:59.97432,4.46475,0,18.5,0,-12.5,-12.5,-1.953125,9.375,,0,,9.375,40,0,3640.625,15.01140609,3.0875808,-11.92382529,0,1.66668,0,10,,0,9.84375,-0.15625,14.9019607843137,78.8,0,41.019,,183.2,100.4,14.0625,0,9.375,9.375,
59,2024-06-25,05:00:00.05245,4.54099,0,18.5,0,-12.5,-12.5,-1.953125,9.375,,0,,9.375,40,0,3632.8125,15.01140609,3.1840677,-11.82733839,0,1.725504,0,10,,0,9.84375,-0.15625,14.9019607843137,78.8,0,41.019,,183.2,100.4,14.0625,0,9.375,10.9375,
60,2024-06-25,05:00:00.11497,4.60314,0,18.5,0,-12.5,-12.5,-1.953125,10.9375,,0,,9.375,40,0,3617.1875,15.01140609,3.1840677,-11.82733839,0,1.725504,0,10,,0,9.84375,0,14.9019607843137,78.8,0,39.776,,183.2,100.4,14.0625,0,7.8125,9.375,
61,2024-06-25,05:00:00.20874,4.69265,0,18.5,0,-12.5,-12.5,-1.953125,9.375,,0,,9.375,40,0,3609.375,15.01140609,3.0875808,-11.92382529,0,1.686288,0,10,,0,9.84375,0,14.9019607843137,78.8,0,39.776,,183.2,100.4,12.5,0,10.9375,9.375,
62,2024-06-25,05:00:00.25559,4.73419,0,18.5,0,-12.5,-12.5,-1.953125,9.375,,0,,9.375,40,0,3593.75,15.01140609,3.0875808,-11.92382529,0,1.686288,0,10,,0,9.84375,0,14.5098039215686,78.8,0,39.776,,183.2,100.4,12.5,0,7.8125,9.375,
63,2024-06-25,05:00:00.28682,4.77059,0,18.5,0,-12.5,-12.5,-1.953125,9.375,,0,,9.375,40,0,3593.75,15.01140609,3.0875808,-11.92382529,0,1.607856,0,10,,0,9.84375,0,14.5098039215686,78.8,0,39.776,,183.2,100.4,12.5,0,9.375,9.375,
64,2024-06-25,05:00:00.33370,4.81862,0,18.5,0,-12.5,-12.5,-1.953125,9.375,,0,,9.375,40,0,3585.9375,15.01140609,3.0875808,-11.92382529,0,1.607856,0,10,,0,9.6875,0,14.5098039215686,78.8,0,39.776,,183.2,100.4,12.5,0,7.8125,7.8125,
65,2024-06-25,05:00:00.41182,4.89043,0,18.5,0,-12.5,-12.5,-1.953125,9.375,,0,,9.375,40,0,3578.125,15.01140609,3.1840677,-11.82733839,0,1.647072,0,10,,0,9.6875,0,14.5098039215686,78.8,0,39.776,,183.2,100.4,12.5,0,7.8125,9.375,
66,2024-06-25,05:00:00.44307,4.93124,0,18.5,0,-12.5,-12.5,-1.953125,9.375,,0,,9.375,40,0,3570.3125,15.01140609,3.1840677,-11.82733839,0,1.647072,0,10,,0,9.6875,0,14.5098039215686,78.8,0,39.776,,183.2,100.4,12.5,0,7.8125,9.375,
67,2024-06-25,05:00:00.52120,5.00683,0,18.5,0,-12.5,-12.5,-1.953125,9.375,,0,,9.375,40,0,3562.5,15.01140609,3.0875808,-11.92382529,0,1.686288,0,10,,0,9.6875,0,14.5098039215686,78.8,0,39.776,,183.2,100.4,12.5,0,9.375,9.375,
68,2024-06-25,05:00:00.59936,5.0884,0,18.5,0,-12.5,-12.5,-1.953125,9.375,,0,,9.375,40,0,3554.6875,15.01140609,3.0875808,-11.92382529,0,1.686288,0,10,,0,9.84375,0,14.5098039215686,78.8,0,39.776,,183.2,100.4,12.5,0,9.375,9.375,
69,2024-06-25,05:00:00.66183,5.15171,0,18.5,0,-12.5,-12.5,-1.953125,9.375,,0,,9.375,40,0,3546.875,15.01140609,3.0875808,-11.92382529,0,1.686288,0,10,,0,9.84375,0,14.5098039215686,78.8,0,39.776,,183.2,102.2,12.5,0,7.8125,9.375,
70,2024-06-25,05:00:00.75561,5.23438,0,18.5,0,-12.5,-12.5,-1.953125,9.375,,0,,9.375,40,0,3531.25,15.01140609,3.0875808,-11.92382529,0,1.686288,0,10,,0,9.53125,0,14.5098039215686,78.8,0,39.776,,183.2,102.2,12.5,0,7.8125,9.375,
71,2024-06-25,05:00:00.88060,5.36585,0,18.5,0,-12.5,-12.5,-1.953125,9.375,,0,,9.375,40,0,3523.4375,15.01140609,3.1840677,-11.82733839,0,1.705896,0,10,,0,9.53125,0,14.5098039215686,78.8,0,39.776,,183.2,102.2,12.5,0,10.9375,9.375,
72,2024-06-25,05:00:00.94308,5.42693,0,18.5,0,-12.5,-12.5,-1.953125,9.375,,0,,9.375,40,0,3507.8125,15.01140609,3.1840677,-11.82733839,0,1.705896,0,10,,0,9.6875,0.15625,14.5098039215686,78.8,0,38.533,,183.2,102.2,12.5,0,7.8125,9.375,
73,2024-06-25,05:00:01.02120,5.5085,0,18.5,0,-12.5,-12.5,-1.953125,9.375,,0,,9.375,40,0,3500,15.01140609,3.1840677,-11.82733839,0,1.607856,0,10,,0,9.6875,0.15625,14.5098039215686,78.8,0,38.533,,183.2,102.2,12.5,0,9.375,9.375,
74,2024-06-25,05:00:01.08375,5.56976,0,18.5,0,-12.5,-12.5,-1.953125,9.375,,0,,9.375,40,0,3484.375,15.01140609,3.1840677,-11.82733839,0,1.607856,0,10,,0,9.53125,0,15.6862745098039,78.8,0,38.533,,183.2,102.2,14.0625,0,14.0625,12.5,
75,2024-06-25,05:00:01.20873,5.69902,0,18.5,0,-12.5,-12.5,-1.953125,12.5,,0,,12.5,-10,0,3468.75,15.01140609,3.7629891,-11.24841699,0,1.76472,0,10,,0,9.53125,0,15.6862745098039,78.8,0,38.533,,183.2,102.2,17.1875,0,15.625,14.0625,
76,2024-06-25,05:00:01.31807,5.79565,0,18.5,0,-12.5,-12.5,-1.953125,14.0625,,1.4,,14.0625,12,0,3468.75,15.01140609,3.7629891,-11.24841699,0,1.76472,4.046875,10,,0,9.53125,0.15625,15.6862745098039,78.8,0,38.533,,183.2,102.2,15.625,0,14.0625,14.0625,
77,2024-06-25,05:00:01.42745,5.91979,0,18.5,0,-12.5,-12.5,-1.953125,15.625,,1.4,,15.625,34,0,3460.9375,15.01140609,3.6665022,-11.34490389,0,1.803936,4.03776041666667,10,,0,9.53125,0.15625,16.078431372549,78.8,0,38.533,,183.2,102.2,15.625,0,14.0625,14.0625,
78,2024-06-25,05:00:01.53682,6.02877,0,18.5,0,-12.5,-12.5,-1.953125,14.0625,,1.3,,14.0625,40,0,3445.3125,15.01140609,3.6665022,-11.34490389,0,1.803936,3.732421875,10,,0,9.375,0.15625,16.078431372549,78.8,0,37.29,,183.2,102.2,15.625,0,15.625,14.0625,
79,2024-06-25,05:00:01.59938,6.08526,0,18.5,0,-12.5,-12.5,-1.953125,14.0625,,1.3,,14.0625,40,0,3445.3125,15.01140609,3.6665022,-11.34490389,0,1.843152,3.732421875,10,,0,9.375,0.15625,16.078431372549,78.8,0,37.29,,183.2,102.2,15.625,0,14.0625,14.0625,
80,2024-06-25,05:00:01.69307,6.17098,0,18.5,0,-12.5,-12.5,-1.953125,14.0625,,1.3,,14.0625,40,0,3437.5,15.01140609,3.6665022,-11.34490389,0,1.843152,3.72395833333333,10,,0,9.53125,0.15625,16.078431372549,78.8,0,37.29,,183.2,102.2,15.625,0,15.625,15.625,
81,2024-06-25,05:00:01.81807,6.29858,0,18.5,0,-12.5,-12.5,-1.953125,15.625,,1.3,,15.625,40,0,3421.875,15.01140609,3.7629891,-11.24841699,0,1.784328,3.70703125,10,,0,9.53125,0.15625,16.078431372549,78.8,0,37.29,,183.2,102.2,17.1875,0,15.625,15.625,
82,2024-06-25,05:00:01.88062,6.37071,0,18.5,0,-12.5,-12.5,-1.953125,15.625,,1.3,,15.625,40,0,3414.0625,15.01140609,3.7629891,-11.24841699,0,1.784328,3.69856770833333,10,,0,9.53125,0.15625,16.078431372549,78.8,0,37.29,,183.2,102.2,17.1875,0,12.5,15.625,
83,2024-06-25,05:00:01.97432,6.46222,0,15.5,0,-12.5,-12.5,-1.953125,15.625,,1.3,,15.625,40,0,3390.625,15.01140609,3.859476,-11.15193009,0,1.803936,3.67317708333333,10,,0,9.53125,0.15625,16.078431372549,78.8,0,37.29,,183.2,102.2,17.1875,0,15.625,15.625,
84,2024-06-25,05:00:02.05244,6.53628,0,15.5,0,-12.5,-12.5,-1.953125,15.625,,1.4,,15.625,40,0,3406.25,15.01140609,3.859476,-11.15193009,0,1.803936,3.97395833333333,10,,0,9.53125,0.3125,16.078431372549,78.8,0,37.29,,183.2,102.2,17.1875,0,15.625,15.625,
85,2024-06-25,05:00:02.08369,6.56419,0,12.4,0,-12.5,-12.5,-1.953125,15.625,,1.4,,15.625,40,0,3406.25,15.01140609,3.859476,-11.15193009,0,1.803936,3.97395833333333,10,,0,9.53125,0.3125,16.078431372549,78.8,0,37.29,,183.2,102.2,17.1875,0,15.625,15.625,
86,2024-06-25,05:00:02.14619,6.6368,0,12.4,0,-12.5,-12.5,-1.953125,15.625,,1.3,,15.625,40,0,3398.4375,15.01140609,3.859476,-11.15193009,0,1.803936,3.681640625,10,,0,9.53125,0.15625,16.078431372549,78.8,0,37.29,,183.2,102.2,17.1875,0,15.625,15.625,
87,2024-06-25,05:00:02.23998,6.7282,0,12.8,0,-12.5,-12.5,-1.953125,15.625,,1.3,,15.625,40,0,3367.1875,15.01140609,3.859476,-11.15193009,0,1.784328,3.64778645833333,10,,0,9.53125,0.15625,16.078431372549,78.8,0,37.29,,183.2,102.2,17.1875,0,15.625,15.625,
88,2024-06-25,05:00:02.31807,6.80805,0,12.8,0,-12.5,-12.5,-1.953125,15.625,,1.4,,17.1875,40,0,3390.625,15.01140609,3.859476,-11.15193009,0,1.784328,3.95572916666667,10,,0,9.6875,0.3125,16.078431372549,78.8,0,37.29,,183.2,102.2,18.75,0,20.3125,17.1875,
89,2024-06-25,05:00:02.44307,6.92423,0,11.8,0,-12.5,-12.5,-1.953125,17.1875,,1.4,,17.1875,40,0,3375,15.01140609,4.1489367,-10.86246939,0,1.921584,3.9375,10,,0,9.6875,0.3125,17.6470588235294,78.8,0,37.29,,183.2,102.2,20.3125,0,20.3125,18.75,
90,2024-06-25,05:00:02.52122,7.01361,0,11.8,0,-12.5,-12.5,-1.953125,18.75,,1.5,,18.75,40,0,3375,15.01140609,4.1489367,-10.86246939,0,1.921584,4.21875,10.625,,-0.625,9.53125,0.3125,17.6470588235294,78.8,0,37.29,,183.2,102.2,21.875,0,21.875,20.3125,
91,2024-06-25,05:00:02.66186,7.15118,0,11.1,0,-1.953125,-12.5,-1.953125,21.875,,1.5,,21.875,40,0,3406.25,15.01140609,5.0173188,-9.99408729,0,2.019624,4.2578125,10.625,,-0.625,9.53125,0.3125,17.6470588235294,78.8,0,37.29,,183.2,102.2,25,0,20.3125,21.875,
92,2024-06-25,05:00:02.75557,7.2435,0,10.7,0,-1.953125,-12.5,-1.953125,21.875,,1.4,,21.875,40,0,3351.5625,15.01140609,5.0173188,-9.99408729,0,2.019624,3.91015625,11.875,,-1.875,9.6875,0.15625,18.0392156862745,78.8,0,37.29,,183.2,102.2,25,0,23.4375,23.4375,
93,2024-06-25,05:00:02.88057,7.36246,0,10.7,0,-1.953125,-12.5,-1.953125,23.4375,,1.4,,23.4375,40,0,3328.125,15.01140609,5.2102926,-9.80111349,0,2.000016,3.8828125,11.875,,-1.875,9.6875,0.15625,18.0392156862745,78.8,0,37.29,,183.2,102.2,25,0,23.4375,23.4375,
94,2024-06-25,05:00:02.95873,7.4471,0,10.6,0,-1.953125,-12.5,-1.953125,23.4375,,1.5,,23.4375,40,0,3390.625,15.01140609,5.2102926,-9.80111349,0,2.000016,4.23828125,12.5,,-2.5,9.53125,0.15625,18.0392156862745,78.8,0,37.29,,183.2,102.2,25,0,21.875,23.4375,
95,2024-06-25,05:00:03.05244,7.53702,0,10.9,0,-1.953125,-12.5,-1.953125,23.4375,,1.5,,23.4375,40,0,3406.25,15.01140609,5.1138057,-9.89760039,0,2.039232,4.2578125,12.5,,-2.5,9.53125,0.15625,18.4313725490196,78.8,0,37.29,,183.2,102.2,25,0,23.4375,23.4375,
96,2024-06-25,05:00:03.11495,7.5946,0,10.9,0,-1.953125,-12.5,-1.953125,23.4375,,1.5,,23.4375,40,0,3335.9375,15.01140609,5.1138057,-9.89760039,0,2.039232,4.169921875,12.5,,-2.5,9.6875,0.3125,18.4313725490196,78.8,0,37.29,,183.2,102.2,26.5625,0,26.5625,23.4375,
97,2024-06-25,05:00:03.22431,7.70322,0,11.5,0,-1.953125,-12.5,-1.953125,25,,1.5,,25,40,0,3343.75,15.01140609,5.4032664,-9.60813969,0,2.039232,4.1796875,12.5,,-2.5,9.6875,0.3125,18.4313725490196,78.8,0,37.29,,183.2,102.2,28.125,0,25,25,
98,2024-06-25,05:00:03.27122,7.75482,0,11.5,0,-1.953125,-12.5,-1.953125,25,,1.5,,25,40,0,3375,15.01140609,5.4032664,-9.60813969,0,2.039232,4.21875,12.5,,-2.5,9.6875,0.3125,18.8235294117647,78.8,0,37.29,,183.2,102.2,28.125,0,25,25,
99,2024-06-25,05:00:03.36495,7.84738,0,11.8,0,-1.953125,-12.5,-1.953125,25,,1.5,,25,40,0,3367.1875,15.01140609,5.4997533,-9.51165279,0,2.019624,4.208984375,12.5,,-2.5,9.6875,0.3125,18.8235294117647,78.8,0,37.29,,183.2,102.2,28.125,0,26.5625,25,